Location: ČR
(50.0000°N, 15.0000°E)
Time: 15:47:47
(UTC+01:00)

Courier 1B - Pass Details

Date: 16 February 2026
Orbit: 962 x 1208 km, 28.3° (Epoch: 16 March)

Event Time Altitude Azimuth Distance (km) Brightness Sun altitude
Rises 21:43:13 0° 227° (SW) 4,016 10.8 -41.1°
Enters shadow 21:44:07 - 223° (SW) 3,798 10.6 -41.3°
Reaches altitude 10° 21:47:48 10° 203° (SSW) 3,095 - -41.7°
Maximum altitude 21:51:10 13° 176° (S) 2,865 - -42.1°
Drops below altitude 10° 21:54:34 10° 150° (SSE) 3,133 - -42.5°
Sets 21:59:16 0° 126° (SE) 4,105 - -43.1°
